This is the latest recevied weather packets stored in our database for station/object K5DLF-13. If no packets are shown the sender has not sent any weather packets the latest 10 day(s).
| Time | Temp. | Humidity | Pressure | Rain* | Wind** | Luminosity | Snow |
|---|---|---|---|---|---|---|---|
| 1777388673 | 27.78° C | 84% | 1012 hPa | 0 mm | - | 359 W/m² | - |
| 1777388373 | 27.78° C | 84% | 1011.7 hPa | 0 mm | - | 188 W/m² | - |
| 1777388073 | 27.78° C | 84% | 1011.6 hPa | 0 mm | - | 183 W/m² | - |
| 1777387773 | 27.78° C | 84% | 1011.6 hPa | 0 mm | - | 220 W/m² | - |
| 1777387473 | 27.78° C | 85% | 1011.5 hPa | 0 mm | - | 269 W/m² | - |
| 1777387173 | 27.22° C | 84% | 1011.5 hPa | 0 mm | - | 209 W/m² | - |
| 1777386873 | 27.22° C | 85% | 1011.6 hPa | 0 mm | - | 172 W/m² | - |
| 1777386573 | 27.22° C | 85% | 1011.7 hPa | 0 mm | - | 211 W/m² | - |
| 1777386273 | 27.22° C | 87% | 1011.6 hPa | 0 mm | - | 257 W/m² | - |
| 1777385973 | 27.22° C | 88% | 1011.7 hPa | 0 mm | - | 211 W/m² | - |
| 1777385673 | 26.67° C | 88% | 1011.7 hPa | 0 mm | - | 158 W/m² | - |
| 1777385373 | 26.67° C | 88% | 1011.8 hPa | 0 mm | - | 176 W/m² | - |
| 1777385073 | 26.67° C | 88% | 1011.8 hPa | 0 mm | - | 130 W/m² | - |
| 1777384773 | 26.67° C | 88% | 1011.7 hPa | 0 mm | - | 116 W/m² | - |
| 1777384473 | 26.11° C | 88% | 1011.7 hPa | 0 mm | - | 107 W/m² | - |
| 1777384173 | 26.67° C | 89% | 1011.6 hPa | 0 mm | - | 111 W/m² | - |
| 1777383873 | 26.11° C | 90% | 1011.5 hPa | 0 mm | - | 149 W/m² | - |
| 1777383573 | 26.11° C | 90% | 1011.5 hPa | 0 mm | - | 151 W/m² | - |
| 1777383273 | 26.11° C | 92% | 1011.5 hPa | 0 mm | - | 165 W/m² | - |
| 1777382973 | 26.11° C | 93% | 1011.4 hPa | 0 mm | - | 151 W/m² | - |
| 1777382673 | 25.56° C | 93% | 1011.4 hPa | 0 mm | - | 127 W/m² | - |
| 1777382373 | 25.56° C | 93% | 1011.1 hPa | 0 mm | - | 113 W/m² | - |
| 1777382073 | 25.56° C | 94% | 1011 hPa | 0 mm | - | 98 W/m² | - |
| 1777381773 | 25° C | 94% | 1010.9 hPa | 0 mm | - | 77 W/m² | - |
| 1777381473 | 25° C | 94% | 1010.9 hPa | 0 mm | - | 93 W/m² | - |
* Rain latest hour (hover to see other rain measurements)
** Current wind speed in m/s (hover to see current wind gust speed)